Location: Fossil View Observatory
(30.3980°N, 99.3522°W)
Time: 15:48:50
(UTC-05:00)

ISS - Pass Details

Date: 27 February 2019
Orbit: 406 x 411 km, 51.6° (Epoch: 23 March)

Event Time Altitude Azimuth Distance (km) Brightness Sun altitude
Exits shadow 05:29:30 12° 4° (N) 1,351 -1.1 -21.6°
Drops below altitude 10° 05:29:54 10° 9° (N) 1,460 -0.9 -21.5°
Sets 05:32:25 0° 29° (NNE) 2,323 0.5 -20.9°
